sat.trackr.live / text

‹ back to catalog

ONEWEB-0050

NORAD 45453 · 2020-020AF

PAYLOAD ACTIVE UNKNOWN

§ Identity

Operator
Country
UK
Launch date
2020-03-21
Launch site
TYMSC
Launch vehicle
Mass (kg)
RCS (m²)

Purposes: comms

External: N2YO · Heavens-Above · Gunter

§ Orbital elements

Epoch: 2026-09-19T16:05:40.301376Z

Period
96.60 min
Inclination
88.9337°
Eccentricity
0.0004290
Mean motion
14.90630968 rev/d
Perigee alt
593.0 km
Apogee alt
599.0 km
Semi-major
6,974.1 km
B*
1.3969e-4
RAAN
220.3791°
Arg perigee
32.3945°
Mean anomaly
327.7546°
Rev number
35,445

§ Raw data

ONEWEB-00501 45453U 20020AF  26262.67060534  .00001389  00000+0  13969-3 0  99952 45453  88.9337 220.3791 0004290  32.3945 327.7546 14.90630968354457

JSON: /api/v1/satellites/45453 · /tle

For live sub-satellite position, see the globe view (requires WebGL).

§ Visibility from observer

Set your observer location to see the next 7 days of passes ≥ 10°. The values pass through the URL so the page stays shareable.

No JS? Fill the form by hand. The geolocation button needs JavaScript.